This is the latest recevied weather packets stored in our database for station/object WW5JC. If no packets are shown the sender has not sent any weather packets the latest 10 day(s).
| Time | Temp. | Humidity | Pressure | Rain* | Wind** | Luminosity | Snow |
|---|---|---|---|---|---|---|---|
| 1787782993 | 38.33° C | 43% | 1012.9 hPa | 0 mm | - | 319 W/m² | - |
| 1787782692 | 37.78° C | 43% | 1012.8 hPa | 0 mm | - | 337 W/m² | - |
| 1787782388 | 37.78° C | 42% | 1012.9 hPa | 0 mm | - | 269 W/m² | - |
| 1787782088 | 38.33° C | 41% | 1012.9 hPa | 0 mm | - | 197 W/m² | - |
| 1787781783 | 38.89° C | 40% | 1013 hPa | 0 mm | - | 238 W/m² | - |
| 1787781480 | 38.33° C | 41% | 1013 hPa | 0 mm | - | 197 W/m² | - |
| 1787781175 | 38.33° C | 43% | 1013.2 hPa | 0 mm | - | 204 W/m² | - |
| 1787780874 | 37.78° C | 42% | 1013.1 hPa | 0 mm | - | 217 W/m² | - |
| 1787780574 | 38.33° C | 42% | 1013.3 hPa | 0 mm | - | 240 W/m² | - |
| 1787780269 | 37.78° C | 44% | 1013.2 hPa | 0 mm | - | 247 W/m² | - |
| 1787779965 | 37.78° C | 44% | 1013.6 hPa | 0 mm | - | 302 W/m² | - |
| 1787779660 | 38.33° C | 43% | 1013.5 hPa | 0 mm | - | 362 W/m² | - |
| 1787779358 | 37.78° C | 44% | 1013.7 hPa | 0 mm | - | 331 W/m² | - |
| 1787779053 | 38.33° C | 43% | 1013.8 hPa | 0 mm | - | 248 W/m² | - |
| 1787778749 | 37.78° C | 44% | 1013.8 hPa | 0 mm | - | 249 W/m² | - |
| 1787778445 | 37.78° C | 43% | 1013.8 hPa | 0 mm | - | 272 W/m² | - |
| 1787778140 | 37.78° C | 44% | 1013.8 hPa | 0 mm | - | 241 W/m² | - |
| 1787777834 | 37.78° C | 43% | 1014.2 hPa | 0 mm | - | 276 W/m² | - |
| 1787777530 | 38.89° C | 42% | 1014.2 hPa | 0 mm | - | 459 W/m² | - |
| 1787777225 | 38.89° C | 42% | 1014.3 hPa | 0 mm | - | 528 W/m² | - |
* Rain latest hour (hover to see other rain measurements)
** Current wind speed in m/s (hover to see current wind gust speed)